Wind_Speed
74 71 67 70 70 67 68 68 64 65 65 67 67 69 71 69 70 71 71 73 74 74 76 78 79 77 76 75 77 79 81 82 85 88 87 85 87 87 86 86 84 81 78 77
71 71 69 68 69 68 66 65 65 61 60 60 63 66 69 68 67 68 71 72 72 73 73 70 72 74 78 81 82 83 85 88 89 89 88 90 90 89 88 87 84 82 80 79
70 70 70 67 66 64 66 63 63 62 63 64 63 64 69 71 70 69 71 72 71 70 71 75 79 81 83 85 86 87 92 91 90 92 93 94 92 91 90 88 86 84 83 82
67 66 67 68 67 66 62 63 64 65 65 65 67 62 70 70 68 68 69 68 72 75 76 78 81 85 87 89 90 95 93 93 95 96 96 95 93 91 90 88 87 86 85 85
66 65 64 66 66 65 66 66 67 68 67 64 66 63 67 69 68 70 73 75 77 80 84 87 87 88 90 93 97 95 96 97 99 98 96 93 91 90 90 89 88 87 88 89
66 65 64 64 65 65 66 66 65 65 66 65 67 67 68 70 71 76 78 80 83 86 88 89 92 94 96 98 97 99 100 101 98 96 94 93 93 91 90 89 89 90 92 94
66 65 64 64 65 65 66 66 67 66 68 69 70 70 74 76 77 79 83 86 88 91 93 95 97 98 100 100 101 102 102 99 96 94 94 93 92 91 91 92 92 94 95 96
64 64 64 65 65 64 66 68 70 69 70 70 72 73 76 79 81 83 85 88 90 93 95 97 99 100 102 102 101 99 97 96 95 95 94 93 92 93 94 95 97 98 100 102
63 63 64 64 64 65 67 67 69 69 69 70 75 80 83 85 87 88 90 92 92 95 98 99 100 100 99 97 96 95 95 95 95 94 94 95 96 97 98 100 103 104 106 108
63 62 63 64 65 67 68 69 71 72 71 73 76 79 82 86 88 90 91 93 96 98 98 97 95 95 93 93 94 95 95 95 95 96 98 99 100 102 104 106 108 111 114 118
62 62 64 64 66 67 69 72 73 74 76 77 79 82 85 88 89 90 91 93 93 93 92 92 91 92 92 93 94 94 95 96 99 100 102 104 107 109 111 112 115 119 121 123
62 63 64 65 66 67 69 72 74 75 76 78 79 79 83 83 84 85 86 87 87 87 87 88 90 92 93 93 95 96 99 100 102 105 108 110 112 113 116 120 123 125 125 123
61 62 63 64 65 67 68 69 71 72 74 75 75 78 78 79 80 81 82 83 84 85 88 89 90 92 94 96 99 102 104 106 108 111 112 115 118 121 124 125 125 124 125 125
59 60 61 62 63 65 67 69 70 72 73 73 74 75 77 76 78 79 81 83 85 86 87 90 93 96 99 102 106 108 110 111 112 116 119 122 125 125 125 125 127 125 120 118
56 59 60 61 62 65 67 69 69 70 71 70 72 75 78 79 80 81 82 83 85 88 92 95 99 103 106 107 109 111 113 116 119 122 124 124 125 127 127 122 121 118 112 108
56 58 59 61 62 61 63 67 68 69 71 72 73 75 76 78 81 84 86 89 92 96 99 102 104 106 108 111 114 117 119 121 122 124 126 126 123 120 119 115 111 107 104 102
54 55 56 58 60 61 63 67 68 69 71 73 75 77 80 84 87 90 93 96 98 100 102 106 109 111 114 116 118 120 122 123 125 123 120 119 116 112 109 105 102 100 98 97
53 55 55 56 59 60 65 68 70 73 77 80 81 84 86 89 92 96 97 99 103 106 109 111 113 116 117 119 121 122 119 117 116 116 115 113 110 107 103 99 98 95 91 89
55 57 59 62 64 66 72 74 77 78 81 84 86 88 90 94 97 103 104 107 109 111 113 114 115 116 115 114 114 114 114 115 115 113 110 107 104 100 96 93 89 86 85 81
62 64 67 68 69 71 76 79 82 84 85 89 92 94 97 100 101 105 108 111 113 113 112 110 110 111 113 113 112 112 112 111 108 106 105 100 96 90 85 83 82 80 74 69
67 69 72 73 74 76 80 83 86 89 90 92 95 97 99 101 102 101 102 104 106 106 107 109 109 110 109 110 111 110 108 105 104 101 95 88 85 81 79 77 73 66 62 58
70 71 73 74 76 77 81 83 86 88 88 88 88 88 91 93 96 100 103 104 104 104 105 106 108 109 107 106 105 105 103 98 90 84 82 81 78 74 69 63 59 54 50 46
61 61 62 66 69 72 73 77 80 82 85 87 89 90 92 95 97 100 102 103 103 104 106 106 107 104 105 105 103 99 90 83 80 77 74 70 65 60 54 51 49 45 37 33
49 52 56 60 64 67 71 74 78 81 83 85 87 90 92 96 99 100 99 98 99 102 102 102 100 101 104 102 93 83 78 75 72 68 62 57 54 49 44 41 38 31 25 23
40 42 45 50 55 59 63 68 69 72 75 79 83 86 90 92 93 94 97 98 99 99 98 96 95 95 95 91 83 77 72 65 60 54 51 48 43 38 35 30 23 18 16 16
39 42 43 46 50 50 54 59 61 63 67 72 77 81 84 85 88 91 94 94 93 92 91 90 88 86 84 78 71 65 59 54 50 46 41 37 33 31 25 19 14 13 12 13
Wind_Direction
224 227 229 231 234 239 242 245 247 251 253 255 257 262 263 265 268 271 273 275 277 280 282 284 285 286 287 288 291 293 295 296 296 297 299 300 299 300 301 300 300 299 297 296
224 227 229 233 235 239 244 247 249 252 255 257 260 264 267 268 269 271 274 277 280 282 283 282 283 285 287 290 292 292 293 295 297 298 298 298 299 300 299 298 297 296 295 294
225 226 230 233 235 240 244 247 250 253 256 258 261 261 264 267 271 274 278 281 281 279 279 281 283 286 289 290 291 292 295 297 297 297 297 298 299 298 297 296 296 296 296 295
226 228 230 233 237 240 244 250 254 257 259 260 260 262 269 272 274 277 278 277 277 279 281 282 284 289 288 289 291 294 295 296 296 296 296 296 297 297 296 297 296 296 294 294
227 230 232 235 237 242 246 249 252 255 257 260 265 266 268 271 272 275 276 276 278 278 280 285 285 285 286 288 292 293 294 294 294 295 295 295 294 294 295 296 296 295 295 294
228 232 235 238 240 243 247 251 254 256 258 260 260 264 265 267 269 274 275 275 276 279 281 282 283 285 288 290 292 293 294 293 293 293 293 294 295 296 295 294 295 296 296 296
229 233 238 241 244 246 247 251 254 257 261 262 263 265 264 266 268 270 273 275 276 277 279 283 286 289 290 291 291 291 292 293 293 294 294 294 295 296 296 296 296 294 293 293
232 235 240 243 247 249 251 253 256 257 259 263 265 266 267 269 271 272 273 274 276 278 283 286 287 288 289 290 291 292 292 292 293 294 295 295 294 294 294 293 292 292 291 291
234 238 243 246 249 252 254 257 260 261 262 264 266 267 268 270 272 275 277 280 281 282 283 284 287 288 289 290 290 291 291 292 293 293 293 293 293 293 293 292 292 292 293 293
237 242 246 249 251 254 257 259 262 265 266 268 269 271 272 273 274 276 278 280 280 281 284 285 285 287 288 289 289 289 291 292 293 293 293 293 293 293 293 293 293 294 295 295
240 244 248 251 254 257 260 263 265 268 270 270 272 274 275 276 277 278 278 279 281 282 283 285 286 287 288 288 289 291 292 292 292 292 293 293 292 293 294 295 294 294 294 294
243 247 251 254 257 261 264 266 268 270 273 273 273 273 274 276 277 277 278 280 282 284 286 287 288 288 289 290 291 291 291 291 291 291 291 292 293 294 294 294 294 295 297 297
248 252 256 260 263 265 267 270 271 272 273 274 275 275 276 277 278 279 282 284 285 286 287 287 288 289 290 290 290 290 289 290 291 292 293 294 294 294 295 297 297 298 298 298
254 257 261 264 266 268 270 272 273 274 275 277 278 279 279 280 281 282 283 285 286 287 288 288 289 289 289 289 290 290 292 293 294 294 294 294 296 297 298 298 298 299 299 299
258 261 264 267 268 270 272 273 274 275 278 279 279 281 282 284 285 285 286 287 287 287 287 288 288 289 289 290 291 292 293 293 293 294 295 297 297 298 298 299 299 299 300 300
262 264 266 269 271 273 274 275 277 277 279 280 281 282 284 285 287 287 287 287 288 288 288 288 289 289 290 291 292 293 293 294 296 296 296 297 298 298 299 300 301 302 302 302
266 267 269 271 273 274 275 278 279 281 282 283 284 285 285 285 286 288 288 288 289 288 288 289 290 290 291 292 293 294 295 295 296 296 297 298 299 300 302 303 303 302 304 304
268 270 272 274 276 278 279 280 281 282 283 284 285 286 287 288 288 287 287 288 288 289 289 290 291 291 293 293 293 293 295 295 296 297 298 300 302 303 304 305 304 304 304 304
271 273 274 275 277 278 278 280 281 282 283 284 285 286 287 286 286 287 289 289 290 289 290 290 291 292 292 294 295 296 297 297 298 299 302 303 304 304 304 303 303 303 304 304
273 275 276 276 278 280 281 282 282 283 284 284 286 287 288 289 290 289 290 289 290 291 293 295 295 296 295 296 297 297 298 299 300 303 304 304 303 303 303 302 302 304 304 303
277 277 278 278 279 279 279 280 282 285 286 287 287 287 288 288 289 289 289 289 290 292 293 294 294 294 296 297 298 298 299 301 302 303 303 302 301 301 302 302 303 303 303 305
276 277 280 282 283 283 284 285 286 285 286 287 288 287 288 288 288 288 289 290 291 292 293 293 294 296 297 297 297 298 300 301 303 303 303 302 301 302 303 305 303 305 305 306
279 282 282 282 283 286 287 288 288 289 289 289 289 289 288 288 288 288 289 291 293 294 294 295 295 296 297 297 298 300 303 304 304 303 303 302 303 303 306 305 304 306 309 313
290 290 292 293 293 293 290 289 290 290 290 290 290 290 289 289 289 291 294 294 294 293 294 296 296 295 295 298 302 304 304 304 303 301 302 306 306 308 307 304 306 312 320 327
304 304 305 305 302 300 300 297 298 297 296 295 293 291 290 290 292 292 292 291 292 292 293 293 294 297 299 301 304 305 304 304 303 304 308 309 309 306 306 308 314 322 333 337
326 322 313 314 308 305 304 299 298 299 300 298 295 295 296 296 293 291 290 291 293 295 296 298 300 301 300 302 303 303 304 305 306 309 311 309 307 305 308 314 322 334 345 352
Height
10781 10790 10799 10802 10808 10815 10818 10823 10827 10829 10836 10839 10839 10833 10833 10837 10834 10834 10832 10829 10826 10825 10819 10816 10809 10805 10803 10800 10797 10792 10786 10782 10777 10772 10766 10760 10754 10748 10744 10738 10731 10726 10720 10715
10775 10782 10788 10795 10801 10806 10809 10815 10818 10823 10826 10829 10827 10824 10820 10823 10824 10822 10819 10816 10815 10812 10807 10803 10797 10794 10788 10785 10781 10777 10772 10767 10760 10753 10747 10740 10735 10730 10724 10718 10713 10707 10702 10697
10765 10773 10781 10788 10794 10798 10801 10806 10810 10813 10816 10818 10818 10815 10806 10809 10812 10810 10807 10803 10799 10796 10793 10791 10785 10779 10775 10769 10765 10760 10755 10749 10742 10735 10727 10721 10715 10710 10703 10697 10691 10687 10681 10677
10761 10768 10774 10780 10786 10791 10794 10796 10799 10803 10806 10807 10805 10811 10793 10798 10799 10796 10794 10789 10783 10779 10777 10774 10769 10765 10758 10753 10747 10743 10737 10730 10723 10715 10708 10702 10696 10690 10682 10676 10670 10665 10660 10655
10755 10761 10767 10772 10776 10781 10784 10787 10791 10793 10795 10797 10790 10798 10785 10783 10785 10784 10780 10774 10771 10765 10762 10760 10755 10749 10743 10737 10732 10726 10719 10712 10704 10695 10688 10682 10676 10671 10664 10658 10651 10645 10637 10631
10747 10753 10758 10763 10768 10772 10775 10777 10780 10782 10783 10786 10780 10781 10778 10773 10775 10770 10764 10761 10756 10751 10746 10741 10735 10730 10725 10719 10714 10707 10698 10691 10684 10676 10669 10662 10655 10650 10644 10637 10631 10623 10615 10606
10740 10747 10751 10756 10759 10762 10766 10767 10769 10772 10771 10771 10769 10768 10764 10761 10760 10758 10752 10748 10742 10736 10730 10723 10716 10710 10706 10701 10694 10685 10675 10668 10661 10654 10648 10642 10635 10628 10621 10614 10608 10600 10594 10586
10735 10740 10743 10747 10751 10753 10755 10756 10757 10760 10759 10759 10755 10755 10750 10746 10743 10740 10737 10732 10726 10720 10712 10705 10700 10695 10688 10680 10671 10662 10654 10646 10639 10633 10626 10620 10614 10608 10601 10593 10586 10579 10572 10565
10728 10732 10735 10739 10741 10743 10743 10745 10744 10746 10747 10747 10741 10738 10737 10731 10726 10723 10719 10714 10709 10701 10694 10690 10684 10675 10666 10658 10650 10642 10634 10626 10620 10613 10606 10599 10592 10586 10578 10569 10560 10553 10544 10536
10720 10724 10726 10729 10731 10732 10733 10732 10731 10731 10734 10732 10729 10724 10719 10713 10710 10706 10702 10696 10688 10683 10679 10673 10664 10656 10647 10639 10630 10622 10615 10608 10600 10592 10584 10576 10567 10559 10550 10542 10533 10524 10514 10503
10713 10715 10716 10719 10720 10721 10721 10719 10718 10718 10717 10716 10714 10708 10700 10696 10693 10687 10681 10674 10670 10666 10659 10653 10645 10636 10628 10619 10611 10604 10596 10588 10579 10570 10561 10552 10542 10533 10524 10515 10505 10495 10485 10473
10704 10706 10707 10709 10709 10709 10709 10707 10705 10703 10701 10697 10694 10693 10682 10679 10675 10668 10662 10657 10653 10647 10640 10632 10624 10615 10606 10599 10592 10584 10574 10565 10557 10547 10537 10527 10516 10508 10498 10487 10475 10462 10452 10438
10696 10697 10698 10698 10698 10697 10695 10693 10691 10688 10684 10680 10677 10669 10667 10663 10657 10651 10646 10641 10636 10629 10620 10611 10603 10594 10586 10578 10569 10559 10550 10541 10532 10521 10512 10500 10489 10478 10467 10455 10443 10428 10417 10403
10686 10687 10688 10687 10685 10683 10681 10678 10675 10671 10667 10665 10657 10653 10647 10646 10640 10636 10630 10624 10617 10610 10601 10591 10582 10573 10564 10554 10544 10533 10524 10516 10506 10494 10482 10471 10459 10446 10434 10422 10409 10395 10381 10369
10676 10676 10676 10675 10673 10670 10667 10663 10659 10655 10651 10651 10644 10637 10630 10626 10622 10616 10610 10605 10597 10589 10579 10570 10560 10550 10538 10529 10519 10509 10500 10489 10476 10465 10452 10440 10427 10414 10403 10390 10375 10362 10347 10333
10664 10663 10663 10662 10659 10658 10653 10645 10644 10641 10636 10633 10629 10622 10617 10609 10602 10595 10589 10582 10574 10565 10555 10544 10534 10524 10514 10504 10494 10481 10470 10458 10447 10434 10421 10409 10396 10382 10371 10358 10345 10330 10316 10302
10653 10652 10652 10649 10646 10645 10640 10630 10628 10625 10619 10615 10610 10605 10598 10591 10582 10574 10567 10557 10548 10539 10527 10517 10507 10497 10486 10477 10465 10453 10441 10429 10417 10403 10388 10376 10366 10355 10343 10329 10314 10299 10287 10275
10641 10640 10639 10637 10632 10630 10623 10617 10613 10608 10601 10595 10591 10585 10578 10571 10560 10548 10541 10531 10520 10510 10500 10490 10480 10470 10460 10449 10435 10424 10413 10400 10388 10373 10360 10348 10337 10325 10313 10301 10286 10274 10263 10253
10627 10626 10624 10621 10620 10617 10608 10602 10597 10591 10583 10577 10571 10564 10556 10547 10536 10519 10512 10502 10492 10481 10472 10464 10455 10444 10432 10419 10407 10396 10383 10370 10356 10344 10332 10320 10309 10300 10288 10276 10262 10252 10243 10231
10613 10612 10609 10606 10605 10601 10591 10582 10575 10569 10566 10556 10550 10541 10530 10521 10513 10498 10484 10470 10459 10451 10443 10434 10422 10411 10398 10388 10379 10365 10352 10340 10328 10317 10306 10295 10285 10276 10266 10254 10243 10233 10223 10213
10597 10595 10589 10587 10585 10580 10569 10562 10557 10551 10547 10537 10526 10517 10507 10495 10484 10472 10458 10445 10437 10431 10422 10408 10397 10384 10373 10361 10349 10336 10325 10315 10304 10293 10283 10272 10262 10255 10245 10234 10224 10216 10206 10197
10581 10578 10573 10571 10564 10559 10550 10544 10535 10526 10518 10510 10502 10491 10480 10469 10457 10444 10433 10425 10416 10407 10395 10383 10371 10358 10348 10336 10323 10312 10302 10293 10282 10271 10260 10250 10242 10234 10225 10217 10206 10200 10193 10186
10564 10562 10556 10548 10541 10539 10533 10524 10514 10506 10497 10488 10479 10470 10457 10445 10432 10419 10410 10403 10393 10381 10369 10358 10347 10334 10321 10309 10300 10290 10279 10269 10259 10249 10241 10233 10223 10216 10210 10202 10193 10189 10184 10178
10550 10546 10540 10534 10528 10521 10511 10504 10494 10487 10478 10468 10457 10444 10432 10418 10406 10396 10387 10378 10369 10356 10345 10334 10324 10311 10296 10285 10274 10265 10257 10248 10239 10230 10223 10216 10208 10201 10196 10190 10185 10181 10176 10171
10538 10533 10527 10519 10512 10504 10494 10484 10475 10464 10452 10441 10429 10415 10403 10392 10383 10374 10362 10351 10340 10329 10320 10309 10299 10287 10272 10260 10252 10244 10236 10228 10219 10213 10207 10201 10196 10190 10186 10182 10178 10175 10171 10166
10526 10518 10514 10505 10496 10489 10479 10468 10458 10445 10433 10419 10405 10391 10381 10372 10360 10347 10333 10326 10316 10305 10294 10284 10275 10263 10249 10241 10235 10226 10218 10212 10204 10199 10195 10191 10186 10182 10179 10175 10174 10171 10168 10165